AMOS-17

Last updated on Sun Apr 12 2026 00:02:55 GMT+0000 (Coordinated Universal Time)

1 44479U 19050A 26101.52398406 .00000000 00000+0 00000+0 0 9998 2 44479 0.0108 224.9727 0001490 165.0041 15.4079 1.00268035 24516
UTC large
Height (km)
Speed (km/s)
/
Latitude / Longitude
Inclination (degrees)
Orbital Period (minutes)
Azimuth
Elevation
Range (km)
Doppler Factor

Next 0 passes for location: London (51.5072 / 0.1276)

Sorry there are no passes over London.
AMOS-17